Find Starlink 11267

NORAD ID: 60994 Int'l Des: 2024-158 Owner: SPXS Country: US Constellation: starlink operational
又名: STARLINK-11267 [DTC] celestrak
LEOCIRCULAR

当前视图

正在加载3D地球...

About Starlink 11267

Starlink 11267 (NORAD 60994) is a starlink constellation satellite (v2 mini d2c) launched Sep 5, 2024 by SPXS of US. It operates in LEO, CIRCULAR orbit with a mass of 960.00 kg.

即将过境

Passes for default location (London). Set your location on the main map for personalized predictions.

高度历史

Loading altitude history...

两行轨道根数

1 60994U 24158E 26237.11465109 -.00000920 00000-0 -27422-5 0 9990
2 60994 53.1608 171.2911 0000819 62.4759 297.6342 15.69713672114046
Epoch: Aug 25, 2026 • Age: 10 hours

当前状态

高度 365.7 km
远地点 / 近地点 N/A
速度 7.69 km/s
星下点 -20.11°S, 160.6°W
发射日期 Sep 5, 2024
运行时间 1.9 years
类型 internet

技术详情

分类 Payload
质量 960.00 kg
干质量 910.00 kg
总质量 960.00 kg
长度 0.30 m
直径 4.10 m
跨度 29.00 m
形状 Box + pan
制造商 SPXS
平台类型 Starlink V2MD
阶段状态 In Orbit
所有者/国家 SPXS/US

Most Searched